Regional Weather Roundup
Issued by NWS

Home | Current Version | Previous Version | Graphics & Text | Print | Product List | Glossary Off
Versions: 1 2 3 4 5 6 7 8 9 10 11 12 13 14 15 16 17 18 19 20 21 22 23 24 25 26 27 28 29 30 31 32 33 34 35 36 37 38 39 40 41 42 43 44 45 46 47 48 49 50

000
ASUS43 KFSD 050510
RWRSD

WEATHER ROUNDUP FOR SOUTH DAKOTA
NATIONAL WEATHER SERVICE SIOUX FALLS SD
1100 PM CST WED MAR 04 2015

NOTE: "FAIR" INDICATES FEW OR NO CLOUDS BELOW 12,000 FEET WITH NO
SIGNIFICANT WEATHER AND/OR OBSTRUCTIONS TO VISIBILITY.


SDZ001>005-009-010-012>017-050600-
NORTHWEST AND NORTH CENTRAL SOUTH DAKOTA

CITY           SKY/WX    TMP DP  RH WIND       PRES   REMARKS
BUFFALO          N/A      4  -6  63 S8        30.11F WCI  -9
FAITH            N/A      1 -10  60 S12       30.27R WCI -16
MOBRIDGE       CLEAR      0 -10  63 SE6       30.32F WCI -12
$$

SDZ012>016-024>037-041>051-057-063-072>074-050600-
SOUTHWEST AND SOUTH CENTRAL SOUTH DAKOTA

CITY           SKY/WX    TMP DP  RH WIND       PRES   REMARKS
RAPID CTY ARPT CLEAR      4  -2  76 S8        30.24S WCI  -9
PIERRE         PTCLDY    -8 -14  74 E6        30.39R WCI -21
CUSTER         PTCLDY     2  -8  63 W3        30.06R
ELLSWORTH AFB  PTCLDY     7  -1  69 SW9       30.22S WCI  -7
PHILIP         PTCLDY    -1  -8  72 W3        30.34S
PINE RIDGE     CLEAR     -6 -11  79 CALM      30.27R
SPEARFISH      FAIR       7  -6  56 CALM      30.16S
WINNER         FAIR       1 -10  60 S5        30.38S WCI  -9
$$

SDZ004>011-016>023-039-040-050600-
NORTHEAST SOUTH DAKOTA

CITY           SKY/WX    TMP DP  RH WIND       PRES   REMARKS
ABERDEEN       PTCLDY   -13 -19  75 SW5       30.44R WCI -25
WATERTOWN      PTCLDY    -8 -15  71 NW5       30.38R WCI -19
$$

SDZ017-020-022-023-036>040-048>070-050600-
SOUTHEAST SOUTH DAKOTA

CITY           SKY/WX    TMP DP  RH WIND       PRES   REMARKS
SIOUX FALLS    CLEAR     -3  -9  75 W3        30.45R
HURON          CLEAR     -7 -13  75 CALM      30.46R
CHAMBERLAIN    PTCLDY    -2  -9  72 E3        30.42R
MITCHELL       CLEAR     -1  -7  75 CALM      30.48R
YANKTON        CLEAR      1  -6  71 N3        30.48F
$$

ABBREVIATIONS USED IN REMARKS
   TC - TEMPERATURE IN CELSIUS
  WCI - WIND CHILL INDEX
   HX - HEAT INDEX
  VSB - VISIBILITY




USA.gov is the U.S. government's official web portal to all federal, state and local government web resources and services.